Weather History for Franklin, NC

Change the Weather History Date:

Sunday, April 21, 2013

  Actual Average (KTOC) Record (KTOC)
Temperature  
Mean Temperature 47 °F -  
Max Temperature 64 °F 75 °F 81 °F (2014)
Min Temperature 30 °F 50 °F 45 °F (2014)
Degree Days  
Heating Degree Days 18    
Moisture  
Dew Point 30 °F    
Average Humidity 56    
Maximum Humidity 95    
Minimum Humidity 25    
Precipitation  
Precipitation 0.00 in - - ()
Sea Level Pressure  
Sea Level Pressure 30.33 in    
Wind  
Wind Speed 2 mph (SE)    
Max Wind Speed 9 mph    
Max Gust Speed 16 mph    
Visibility 10 miles    
Events      
Averages and records for this station are not official NWS values.
T = Trace of Precipitation, MM = Missing Value Source: NWS Daily Summary

Daily Weather History Graph

Daily Weather History Graph

Search for Another Location

Airport:

Trip Planner

Search our weather history database for the weather conditions in past years. The results will help you decide how hot, cold, wet, or windy it might be!

Date:

Astronomy

Apr. 21, 2013 Rise Set
Actual Time 6:53 AM EDT 8:11 PM EDT
Civil Twilight 6:27 AM EDT 8:38 PM EDT
Nautical Twilight 5:55 AM EDT 9:09 PM EDT
Astronomical Twilight 5:22 AM EDT 9:42 PM EDT
Moon 4:04 PM EDT (4/21) 4:05 AM EDT (4/21)
Length of Visible Light 14h 10m
Length of Day
13h 17m
Waxing Gibbous, 79% of the Moon is Illuminated
Apr 21
Waxing Gibbous
Apr 25
Full
May 2
Last Quarter
May 9
New
May 18
First Quarter

Hourly Weather History & Observations

Time (EDT) Temp. Dew Point Humidity Pressure Visibility Wind Dir Wind Speed Gust Speed Precip Events Conditions
12:15 AM 35.8 °F 32.0 °F 86% 30.28 in 10.0 mi Calm Calm - N/A   Clear
12:35 AM 34.5 °F 31.3 °F 88% 30.28 in 10.0 mi Calm Calm - N/A   Clear
12:55 AM 34.3 °F 31.8 °F 90% 30.29 in 10.0 mi Calm Calm - N/A   Clear
1:15 AM 34.3 °F 32.0 °F 91% 30.29 in 10.0 mi Calm Calm - N/A   Clear
1:35 AM 34.0 °F 32.0 °F 92% 30.29 in 10.0 mi Calm Calm - N/A   Clear
1:55 AM 33.4 °F 31.3 °F 92% 30.29 in 10.0 mi Calm Calm - N/A   Clear
2:15 AM 32.9 °F 30.6 °F 91% 30.29 in 10.0 mi Calm Calm - N/A   Clear
2:35 AM 32.9 °F 31.1 °F 93% 30.29 in 10.0 mi Calm Calm - N/A   Clear
5:15 AM 30.9 °F 28.9 °F 92% 30.32 in 10.0 mi Calm Calm - N/A   Clear
5:35 AM 30.9 °F 29.3 °F 94% 30.32 in 10.0 mi Calm Calm - N/A   Clear
5:55 AM 30.7 °F 29.1 °F 94% 30.33 in 10.0 mi Calm Calm - N/A   Clear
6:15 AM 30.6 °F 28.9 °F 94% 30.34 in 10.0 mi Calm Calm - N/A   Clear
6:35 AM 30.2 °F 28.6 °F 94% 30.35 in 10.0 mi Calm Calm - N/A   Clear
6:55 AM 30.2 °F 28.9 °F 95% 30.36 in 10.0 mi Calm Calm - N/A   Clear
7:15 AM 30.2 °F 28.8 °F 94% 30.37 in 10.0 mi Calm Calm - N/A   Clear
7:35 AM 30.7 °F 29.3 °F 94% 30.37 in 10.0 mi Calm Calm - N/A   Clear
7:55 AM 31.6 °F 30.2 °F 94% 30.38 in 10.0 mi Calm Calm - N/A   Clear
8:35 AM 34.0 °F 32.0 °F 92% 30.38 in 10.0 mi Calm Calm - N/A   Clear
8:55 AM 36.7 °F 32.0 °F 83% 30.38 in 10.0 mi Calm Calm - N/A   Clear
9:15 AM 40.1 °F 32.5 °F 74% 30.38 in 10.0 mi Calm Calm - N/A   Clear
9:35 AM 43.3 °F 32.7 °F 66% 30.38 in 10.0 mi Calm Calm - N/A   Clear
9:55 AM 44.4 °F 33.1 °F 64% 30.39 in 10.0 mi Calm Calm - N/A   Clear
10:15 AM 46.4 °F 35.1 °F 65% 30.39 in 10.0 mi Calm Calm - N/A   Clear
10:35 AM 48.9 °F 34.2 °F 57% 30.38 in 10.0 mi Calm Calm - N/A   Clear
10:55 AM 51.3 °F 31.6 °F 47% 30.38 in 10.0 mi Calm Calm - N/A   Clear
11:15 AM 53.4 °F 30.6 °F 42% 30.38 in 10.0 mi Calm Calm - N/A   Clear
11:35 AM 56.1 °F 29.1 °F 36% 30.37 in 10.0 mi ENE 6.9 mph - N/A   Clear
11:55 AM 56.3 °F 26.6 °F 32% 30.37 in 10.0 mi North 3.5 mph - N/A   Clear
12:15 PM 58.1 °F 27.3 °F 31% 30.36 in 10.0 mi NE 5.8 mph - N/A   Clear
12:35 PM 58.5 °F 27.0 °F 30% 30.35 in 10.0 mi Calm Calm - N/A   Clear
12:55 PM 58.6 °F 28.2 °F 31% 30.35 in 10.0 mi ENE 4.6 mph - N/A   Clear
1:15 PM 59.5 °F 27.1 °F 29% 30.34 in 10.0 mi North 3.5 mph - N/A   Clear
1:35 PM 59.4 °F 25.9 °F 28% 30.34 in 10.0 mi Calm Calm - N/A   Clear
1:55 PM 60.8 °F 28.6 °F 29% 30.32 in 10.0 mi ENE 3.5 mph - N/A   Clear
2:15 PM 61.0 °F 29.7 °F 31% 30.32 in 10.0 mi West 3.5 mph - N/A   Clear
2:35 PM 61.7 °F 28.4 °F 28% 30.32 in 10.0 mi South 3.5 mph - N/A   Clear
2:55 PM 62.1 °F 27.3 °F 27% 30.30 in 10.0 mi Calm Calm - N/A   Clear
3:15 PM 62.8 °F 27.3 °F 26% 30.30 in 10.0 mi East 3.5 mph - N/A   Clear
3:35 PM 63.7 °F 27.0 °F 25% 30.29 in 10.0 mi WSW 5.8 mph - N/A   Clear
3:55 PM 64.0 °F 29.7 °F 27% 30.27 in 10.0 mi Calm Calm - N/A   Clear
4:15 PM 64.4 °F 28.2 °F 26% 30.27 in 10.0 mi SW 8.1 mph - N/A   Clear
4:35 PM 63.9 °F 27.3 °F 25% 30.26 in 10.0 mi WSW 8.1 mph - N/A   Clear
4:55 PM 63.9 °F 27.9 °F 26% 30.26 in 10.0 mi SSW 6.9 mph - N/A   Clear
5:15 PM 64.0 °F 27.5 °F 25% 30.26 in 10.0 mi SW 9.2 mph - N/A   Clear
5:35 PM 63.9 °F 27.3 °F 25% 30.26 in 10.0 mi SE 6.9 mph - N/A   Clear
5:55 PM 64.0 °F 27.3 °F 25% 30.26 in 10.0 mi ESE 9.2 mph - N/A   Clear
6:15 PM 63.3 °F 27.1 °F 25% 30.26 in 10.0 mi SSE 8.1 mph - N/A   Clear
6:35 PM 62.2 °F 26.8 °F 26% 30.27 in 10.0 mi SSE 8.1 mph - N/A   Clear
6:55 PM 60.8 °F 27.3 °F 28% 30.27 in 10.0 mi SE 6.9 mph - N/A   Clear
7:15 PM 59.4 °F 27.5 °F 30% 30.29 in 10.0 mi SSE 9.2 mph 16.1 mph N/A   Clear
7:35 PM 57.7 °F 27.9 °F 32% 30.30 in 10.0 mi SE 6.9 mph - N/A   Clear
7:55 PM 55.8 °F 28.8 °F 36% 30.32 in 10.0 mi SSE 8.1 mph - N/A   Clear
8:15 PM 55.2 °F 28.2 °F 36% 30.33 in 10.0 mi SSE 6.9 mph - N/A   Clear
8:35 PM 54.3 °F 28.0 °F 36% 30.34 in 10.0 mi SSE 5.8 mph - N/A   Clear
8:55 PM 53.6 °F 27.9 °F 37% 30.34 in 10.0 mi Calm Calm - N/A   Clear
9:15 PM 52.7 °F 29.1 °F 40% 30.35 in 10.0 mi SE 4.6 mph - N/A   Clear
9:35 PM 51.1 °F 31.3 °F 47% 30.36 in 10.0 mi Calm Calm - N/A   Clear
9:55 PM 47.7 °F 33.3 °F 57% 30.37 in 10.0 mi Calm Calm - N/A   Clear
10:15 PM 45.7 °F 34.0 °F 64% 30.37 in 10.0 mi Calm Calm - N/A   Clear
10:35 PM 43.9 °F 34.7 °F 70% 30.37 in 10.0 mi Calm Calm - N/A   Clear
10:55 PM 42.4 °F 34.9 °F 75% 30.37 in 10.0 mi Calm Calm - N/A   Clear
11:15 PM 41.7 °F 35.4 °F 78% 30.37 in 10.0 mi Calm Calm - N/A   Clear
11:55 PM 39.6 °F 34.7 °F 83% 30.36 in 10.0 mi Calm Calm - N/A   Clear